Time,TemperatureF,DewpointF,PressureIn,WindDirection,WindDirectionDegrees,WindSpeedMPH,WindSpeedGustMPH,Humidity,HourlyPrecipIn,Conditions,Clouds,dailyrainin,SoftwareType,DateUTC
2013-02-13 00:04:00,36.2,19.8,30.32,ENE,64,0.0,0.0,51,0.00,,CLR,0.00,VWS V14.01,2013-02-13 08:04:00,
2013-02-13 00:10:00,36.2,19.8,30.32,ENE,64,0.0,0.0,51,0.00,,CLR,0.00,VWS V14.01,2013-02-13 08:10:00,
2013-02-13 00:15:00,36.1,19.7,30.32,ENE,64,0.0,0.0,51,0.00,,CLR,0.00,VWS V14.01,2013-02-13 08:15:00,
2013-02-13 00:20:00,35.9,20.0,30.32,ENE,64,0.0,0.0,52,0.00,,CLR,0.00,VWS V14.01,2013-02-13 08:20:00,
2013-02-13 00:25:00,35.8,20.4,30.32,ENE,64,0.0,0.0,53,0.00,,CLR,0.00,VWS V14.01,2013-02-13 08:25:00,
2013-02-13 00:30:00,35.6,19.7,30.31,ENE,64,0.0,0.0,52,0.00,,CLR,0.00,VWS V14.01,2013-02-13 08:30:00,
2013-02-13 00:35:00,35.3,19.5,30.32,ENE,64,0.0,0.0,52,0.00,,CLR,0.00,VWS V14.01,2013-02-13 08:35:00,
2013-02-13 00:40:00,35.1,18.8,30.31,ENE,64,0.0,0.0,51,0.00,,CLR,0.00,VWS V14.01,2013-02-13 08:40:00,
2013-02-13 00:45:00,34.9,19.5,30.31,ENE,64,0.0,0.0,53,0.00,,CLR,0.00,VWS V14.01,2013-02-13 08:45:00,
2013-02-13 00:50:00,34.8,19.9,30.31,ENE,64,0.0,0.0,54,0.00,,CLR,0.00,VWS V14.01,2013-02-13 08:50:00,
2013-02-13 00:55:00,34.7,20.2,30.31,ENE,64,0.0,0.0,55,0.00,,CLR,0.00,VWS V14.01,2013-02-13 08:55:00,
2013-02-13 01:00:00,34.6,19.7,30.31,ENE,64,0.0,0.0,54,0.00,,CLR,0.00,VWS V14.01,2013-02-13 09:00:00,
2013-02-13 01:05:00,34.4,20.3,30.31,ENE,64,2.0,2.0,56,0.00,,CLR,0.00,VWS V14.01,2013-02-13 09:05:00,
2013-02-13 01:10:00,34.4,20.8,30.31,ENE,64,0.0,2.0,57,0.00,,CLR,0.00,VWS V14.01,2013-02-13 09:10:00,
2013-02-13 01:15:00,34.5,20.9,30.31,ENE,64,0.0,0.0,57,0.00,,CLR,0.00,VWS V14.01,2013-02-13 09:15:00,
2013-02-13 01:20:00,34.6,21.0,30.31,ENE,64,0.0,0.0,57,0.00,,CLR,0.00,VWS V14.01,2013-02-13 09:20:00,
2013-02-13 01:26:00,34.5,20.9,30.31,ENE,64,0.0,0.0,57,0.00,,CLR,0.00,VWS V14.01,2013-02-13 09:26:00,
2013-02-13 01:31:00,34.4,20.8,30.31,ENE,64,0.0,0.0,57,0.00,,CLR,0.00,VWS V14.01,2013-02-13 09:31:00,
2013-02-13 01:36:00,34.2,21.0,30.30,ENE,64,0.0,1.0,58,0.00,,CLR,0.00,VWS V14.01,2013-02-13 09:36:00,
2013-02-13 01:41:00,34.2,21.4,30.30,ENE,64,0.0,0.0,59,0.00,,CLR,0.00,VWS V14.01,2013-02-13 09:41:00,
2013-02-13 01:46:00,34.1,21.3,30.30,ENE,64,0.0,0.0,59,0.00,,CLR,0.00,VWS V14.01,2013-02-13 09:46:00,
2013-02-13 01:51:00,34.0,21.6,30.30,ENE,64,0.0,0.0,60,0.00,,CLR,0.00,VWS V14.01,2013-02-13 09:51:00,
2013-02-13 01:56:00,33.9,21.5,30.30,ENE,64,0.0,0.0,60,0.00,,CLR,0.00,VWS V14.01,2013-02-13 09:56:00,
2013-02-13 02:01:00,33.9,21.9,30.31,ENE,64,0.0,0.0,61,0.00,,CLR,0.00,VWS V14.01,2013-02-13 10:01:00,
2013-02-13 02:06:00,33.7,21.7,30.31,ENE,64,0.0,0.0,61,0.00,,CLR,0.00,VWS V14.01,2013-02-13 10:06:00,
2013-02-13 02:11:00,33.5,21.5,30.30,ENE,64,0.0,0.0,61,0.00,,CLR,0.00,VWS V14.01,2013-02-13 10:11:00,
2013-02-13 02:16:00,33.4,21.8,30.30,ENE,64,0.0,0.0,62,0.00,,CLR,0.00,VWS V14.01,2013-02-13 10:16:00,
2013-02-13 02:21:00,33.3,21.7,30.30,ENE,64,0.0,0.0,62,0.00,,CLR,0.00,VWS V14.01,2013-02-13 10:21:00,
2013-02-13 02:26:00,33.3,22.1,30.30,ENE,64,0.0,0.0,63,0.00,,CLR,0.00,VWS V14.01,2013-02-13 10:26:00,
2013-02-13 02:31:00,33.2,21.6,30.30,ENE,64,1.0,1.0,62,0.00,,CLR,0.00,VWS V14.01,2013-02-13 10:31:00,
2013-02-13 02:36:00,33.1,22.3,30.30,ENE,64,0.0,0.0,64,0.00,,CLR,0.00,VWS V14.01,2013-02-13 10:36:00,
2013-02-13 02:42:00,33.0,22.2,30.30,ENE,64,0.0,0.0,64,0.00,,CLR,0.00,VWS V14.01,2013-02-13 10:42:00,
2013-02-13 02:47:00,33.1,22.6,30.30,ENE,64,1.0,2.0,65,0.00,,CLR,0.00,VWS V14.01,2013-02-13 10:47:00,
2013-02-13 02:52:00,33.1,22.3,30.30,ENE,64,0.0,0.0,64,0.00,,CLR,0.00,VWS V14.01,2013-02-13 10:52:00,
2013-02-13 02:57:00,33.1,22.6,30.30,ENE,64,0.0,0.0,65,0.00,,CLR,0.00,VWS V14.01,2013-02-13 10:57:00,
2013-02-13 03:02:00,33.0,22.5,30.29,ENE,64,0.0,0.0,65,0.00,,CLR,0.00,VWS V14.01,2013-02-13 11:02:00,
2013-02-13 03:07:00,33.0,22.5,30.29,ENE,64,0.0,0.0,65,0.00,,CLR,0.00,VWS V14.01,2013-02-13 11:07:00,
2013-02-13 03:12:00,32.9,22.4,30.29,ENE,64,0.0,0.0,65,0.00,,CLR,0.00,VWS V14.01,2013-02-13 11:12:00,
2013-02-13 03:17:00,32.9,22.4,30.29,ENE,64,0.0,0.0,65,0.00,,CLR,0.00,VWS V14.01,2013-02-13 11:17:00,
2013-02-13 03:22:00,32.8,22.7,30.29,ENE,64,0.0,0.0,66,0.00,,CLR,0.00,VWS V14.01,2013-02-13 11:22:00,
2013-02-13 03:27:00,32.8,22.7,30.29,ENE,64,1.0,1.0,66,0.00,,CLR,0.00,VWS V14.01,2013-02-13 11:27:00,
2013-02-13 03:32:00,32.6,22.1,30.29,ENE,64,0.0,0.0,65,0.00,,CLR,0.00,VWS V14.01,2013-02-13 11:32:00,
2013-02-13 03:37:00,32.5,22.4,30.29,ENE,64,0.0,0.0,66,0.00,,CLR,0.00,VWS V14.01,2013-02-13 11:37:00,
2013-02-13 03:42:00,32.4,22.7,30.29,ENE,64,0.0,0.0,67,0.00,,CLR,0.00,VWS V14.01,2013-02-13 11:42:00,
2013-02-13 03:47:00,32.4,22.3,30.29,ENE,64,0.0,0.0,66,0.00,,CLR,0.00,VWS V14.01,2013-02-13 11:47:00,
2013-02-13 03:52:00,32.3,22.2,30.29,ENE,64,0.0,0.0,66,0.00,,CLR,0.00,VWS V14.01,2013-02-13 11:52:00,
2013-02-13 03:57:00,32.1,22.4,30.29,ENE,64,0.0,0.0,67,0.00,,CLR,0.00,VWS V14.01,2013-02-13 11:57:00,
2013-02-13 04:03:00,32.1,22.4,30.29,ENE,64,0.0,0.0,67,0.00,,CLR,0.00,VWS V14.01,2013-02-13 12:03:00,
2013-02-13 04:08:00,32.0,22.3,30.28,ENE,64,0.0,0.0,67,0.00,,CLR,0.00,VWS V14.01,2013-02-13 12:08:00,
2013-02-13 04:13:00,31.8,22.5,30.29,ENE,64,0.0,0.0,68,0.00,,CLR,0.00,VWS V14.01,2013-02-13 12:13:00,
2013-02-13 04:18:00,31.7,22.4,30.29,ENE,64,0.0,0.0,68,0.00,,CLR,0.00,VWS V14.01,2013-02-13 12:18:00,
2013-02-13 04:23:00,31.5,22.2,30.29,ENE,64,0.0,0.0,68,0.00,,CLR,0.00,VWS V14.01,2013-02-13 12:23:00,
2013-02-13 04:28:00,31.3,22.3,30.29,ENE,64,0.0,0.0,69,0.00,,CLR,0.00,VWS V14.01,2013-02-13 12:28:00,
2013-02-13 04:33:00,31.1,22.5,30.29,ENE,64,0.0,0.0,70,0.00,,CLR,0.00,VWS V14.01,2013-02-13 12:33:00,
2013-02-13 04:38:00,31.1,22.8,30.29,ENE,64,0.0,0.0,71,0.00,,CLR,0.00,VWS V14.01,2013-02-13 12:38:00,
2013-02-13 04:43:00,31.0,22.7,30.29,ENE,64,0.0,0.0,71,0.00,,CLR,0.00,VWS V14.01,2013-02-13 12:43:00,
2013-02-13 04:48:00,31.0,22.7,30.29,ENE,64,0.0,0.0,71,0.00,,CLR,0.00,VWS V14.01,2013-02-13 12:48:00,
2013-02-13 04:53:00,31.0,23.0,30.29,ENE,64,0.0,1.0,72,0.00,,CLR,0.00,VWS V14.01,2013-02-13 12:53:00,
2013-02-13 04:58:00,31.1,23.1,30.29,ENE,64,0.0,0.0,72,0.00,,CLR,0.00,VWS V14.01,2013-02-13 12:58:00,
2013-02-13 05:03:00,31.1,23.1,30.29,ENE,64,0.0,0.0,72,0.00,,CLR,0.00,VWS V14.01,2013-02-13 13:03:00,
2013-02-13 05:08:00,31.2,23.6,30.29,ENE,64,0.0,2.0,73,0.00,,CLR,0.00,VWS V14.01,2013-02-13 13:08:00,
2013-02-13 05:13:00,31.4,23.4,30.29,ENE,64,0.0,0.0,72,0.00,,CLR,0.00,VWS V14.01,2013-02-13 13:13:00,
2013-02-13 05:19:00,31.4,23.1,30.29,ENE,64,0.0,0.0,71,0.00,,CLR,0.00,VWS V14.01,2013-02-13 13:19:00,
2013-02-13 05:24:00,31.4,22.8,30.29,ENE,64,0.0,0.0,70,0.00,,CLR,0.00,VWS V14.01,2013-02-13 13:24:00,
2013-02-13 05:29:00,31.2,22.6,30.29,ENE,64,0.0,0.0,70,0.00,,CLR,0.00,VWS V14.01,2013-02-13 13:29:00,
2013-02-13 05:34:00,31.0,22.4,30.29,ENE,64,0.0,0.0,70,0.00,,CLR,0.00,VWS V14.01,2013-02-13 13:34:00,
2013-02-13 05:39:00,30.8,22.5,30.30,ENE,64,0.0,0.0,71,0.00,,CLR,0.00,VWS V14.01,2013-02-13 13:39:00,
2013-02-13 05:44:00,30.7,22.4,30.30,ENE,64,0.0,0.0,71,0.00,,CLR,0.00,VWS V14.01,2013-02-13 13:44:00,
2013-02-13 05:49:00,30.8,22.5,30.30,ENE,64,0.0,0.0,71,0.00,,CLR,0.00,VWS V14.01,2013-02-13 13:49:00,
2013-02-13 05:54:00,31.0,22.7,30.30,ENE,64,0.0,0.0,71,0.00,,CLR,0.00,VWS V14.01,2013-02-13 13:54:00,
2013-02-13 05:59:00,31.2,22.9,30.31,ENE,64,0.0,0.0,71,0.00,,CLR,0.00,VWS V14.01,2013-02-13 13:59:00,
2013-02-13 06:04:00,31.2,22.6,30.31,ENE,64,0.0,0.0,70,0.00,,CLR,0.00,VWS V14.01,2013-02-13 14:04:00,
2013-02-13 06:09:00,31.3,22.7,30.31,ENE,64,0.0,0.0,70,0.00,,CLR,0.00,VWS V14.01,2013-02-13 14:09:00,
2013-02-13 06:14:00,31.4,22.8,30.31,ENE,64,0.0,0.0,70,0.00,,CLR,0.00,VWS V14.01,2013-02-13 14:14:00,
2013-02-13 06:19:00,31.6,23.0,30.31,ENE,64,0.0,1.0,70,0.00,,CLR,0.00,VWS V14.01,2013-02-13 14:19:00,
2013-02-13 06:24:00,31.6,22.6,30.31,ENE,64,0.0,0.0,69,0.00,,CLR,0.00,VWS V14.01,2013-02-13 14:24:00,
2013-02-13 06:29:00,31.5,22.5,30.31,ENE,64,1.0,2.0,69,0.00,,CLR,0.00,VWS V14.01,2013-02-13 14:29:00,
2013-02-13 06:34:00,31.4,22.4,30.31,ENE,64,1.0,2.0,69,0.00,,CLR,0.00,VWS V14.01,2013-02-13 14:34:00,
2013-02-13 06:40:00,31.2,22.2,30.31,ENE,64,0.0,1.0,69,0.00,,CLR,0.00,VWS V14.01,2013-02-13 14:40:00,
2013-02-13 06:45:00,31.1,22.5,30.31,ENE,64,0.0,0.0,70,0.00,,CLR,0.00,VWS V14.01,2013-02-13 14:45:00,
2013-02-13 06:50:00,30.9,22.3,30.31,ENE,64,0.0,0.0,70,0.00,,CLR,0.00,VWS V14.01,2013-02-13 14:50:00,
2013-02-13 06:55:00,30.8,22.2,30.31,ENE,64,0.0,0.0,70,0.00,,CLR,0.00,VWS V14.01,2013-02-13 14:55:00,
2013-02-13 07:00:00,30.7,22.1,30.31,ENE,64,0.0,0.0,70,0.00,,CLR,0.00,VWS V14.01,2013-02-13 15:00:00,
2013-02-13 07:05:00,30.7,22.4,30.32,ENE,64,0.0,0.0,71,0.00,,CLR,0.00,VWS V14.01,2013-02-13 15:05:00,
2013-02-13 07:10:00,30.8,22.5,30.32,ENE,64,0.0,0.0,71,0.00,,CLR,0.00,VWS V14.01,2013-02-13 15:10:00,
2013-02-13 07:15:00,31.0,22.7,30.32,ENE,64,0.0,0.0,71,0.00,,CLR,0.00,VWS V14.01,2013-02-13 15:15:00,
2013-02-13 07:20:00,31.2,22.9,30.33,ENE,64,0.0,0.0,71,0.00,,CLR,0.00,VWS V14.01,2013-02-13 15:20:00,
2013-02-13 07:25:00,31.5,23.5,30.33,ENE,64,0.0,0.0,72,0.00,,CLR,0.00,VWS V14.01,2013-02-13 15:25:00,
2013-02-13 07:30:00,32.0,23.7,30.33,ENE,64,2.0,2.0,71,0.00,,CLR,0.00,VWS V14.01,2013-02-13 15:30:00,
2013-02-13 07:35:00,32.6,23.9,30.33,ENE,64,0.0,0.0,70,0.00,,CLR,0.00,VWS V14.01,2013-02-13 15:35:00,
2013-02-13 07:40:00,33.3,24.2,30.33,ENE,64,0.0,0.0,69,0.00,,CLR,0.00,VWS V14.01,2013-02-13 15:40:00,
2013-02-13 07:45:00,34.0,24.9,30.33,ENE,64,0.0,0.0,69,0.00,,CLR,0.00,VWS V14.01,2013-02-13 15:45:00,
2013-02-13 07:50:00,34.9,24.7,30.33,ENE,64,2.0,2.0,66,0.00,,CLR,0.00,VWS V14.01,2013-02-13 15:50:00,
2013-02-13 07:56:00,35.6,24.3,30.33,ENE,64,0.0,2.0,63,0.00,,CLR,0.00,VWS V14.01,2013-02-13 15:56:00,
2013-02-13 08:01:00,36.3,24.1,30.33,ENE,64,2.0,2.0,61,0.00,,CLR,0.00,VWS V14.01,2013-02-13 16:01:00,
2013-02-13 08:06:00,36.9,24.3,30.33,ENE,64,4.0,4.0,60,0.00,,CLR,0.00,VWS V14.01,2013-02-13 16:06:00,
2013-02-13 08:11:00,37.4,24.0,30.33,ENE,64,1.0,2.0,58,0.00,,CLR,0.00,VWS V14.01,2013-02-13 16:11:00,
2013-02-13 08:16:00,37.9,24.0,30.34,ENE,64,0.0,0.0,57,0.00,,CLR,0.00,VWS V14.01,2013-02-13 16:16:00,
2013-02-13 08:21:00,38.4,24.1,30.34,ENE,64,0.0,0.0,56,0.00,,CLR,0.00,VWS V14.01,2013-02-13 16:21:00,
2013-02-13 08:26:00,38.8,24.0,30.34,ENE,64,0.0,0.0,55,0.00,,CLR,0.00,VWS V14.01,2013-02-13 16:26:00,
2013-02-13 08:31:00,39.2,24.8,30.34,ENE,64,0.0,0.0,56,0.00,,CLR,0.00,VWS V14.01,2013-02-13 16:31:00,
2013-02-13 08:36:00,39.8,24.5,30.34,ENE,64,0.0,0.0,54,0.00,,CLR,0.00,VWS V14.01,2013-02-13 16:36:00,
2013-02-13 08:41:00,40.2,24.9,30.34,ENE,64,0.0,0.0,54,0.00,,CLR,0.00,VWS V14.01,2013-02-13 16:41:00,
2013-02-13 08:46:00,40.4,24.6,30.34,ENE,64,0.0,0.0,53,0.00,,CLR,0.00,VWS V14.01,2013-02-13 16:46:00,
2013-02-13 08:51:00,40.7,24.9,30.34,ENE,64,0.0,3.0,53,0.00,,CLR,0.00,VWS V14.01,2013-02-13 16:51:00,
2013-02-13 08:56:00,41.4,25.1,30.34,ENE,64,0.0,0.0,52,0.00,,CLR,0.00,VWS V14.01,2013-02-13 16:56:00,
2013-02-13 09:01:00,42.0,25.7,30.34,ENE,64,3.0,3.0,52,0.00,,CLR,0.00,VWS V14.01,2013-02-13 17:01:00,
2013-02-13 09:06:00,42.7,25.4,30.34,ENE,64,3.0,4.0,50,0.00,,CLR,0.00,VWS V14.01,2013-02-13 17:06:00,
2013-02-13 09:11:00,43.1,25.3,30.34,ENE,64,0.0,0.0,49,0.00,,CLR,0.00,VWS V14.01,2013-02-13 17:11:00,
2013-02-13 09:17:00,43.2,25.4,30.34,ENE,64,0.0,3.0,49,0.00,,CLR,0.00,VWS V14.01,2013-02-13 17:17:00,
2013-02-13 09:22:00,43.4,25.5,30.34,ENE,64,0.0,0.0,49,0.00,,CLR,0.00,VWS V14.01,2013-02-13 17:22:00,
2013-02-13 09:27:00,43.7,25.8,30.34,ENE,64,0.0,0.0,49,0.00,,CLR,0.00,VWS V14.01,2013-02-13 17:27:00,
2013-02-13 09:32:00,44.0,25.6,30.34,ENE,63,0.0,0.0,48,0.00,,CLR,0.00,VWS V14.01,2013-02-13 17:32:00,
2013-02-13 09:37:00,44.4,26.5,30.34,ENE,63,0.0,0.0,49,0.00,,CLR,0.00,VWS V14.01,2013-02-13 17:37:00,
2013-02-13 09:42:00,45.1,26.6,30.34,ENE,63,0.0,0.0,48,0.00,,CLR,0.00,VWS V14.01,2013-02-13 17:42:00,
2013-02-13 09:47:00,45.9,26.8,30.34,ENE,63,0.0,0.0,47,0.00,,CLR,0.00,VWS V14.01,2013-02-13 17:47:00,
2013-02-13 09:52:00,46.6,26.4,30.34,ENE,63,0.0,2.0,45,0.00,,CLR,0.00,VWS V14.01,2013-02-13 17:52:00,
2013-02-13 09:57:00,47.1,25.8,30.33,ENE,63,2.0,3.0,43,0.00,,CLR,0.00,VWS V14.01,2013-02-13 17:57:00,
2013-02-13 10:02:00,47.3,26.0,30.33,NE,49,0.0,4.0,43,0.00,,CLR,0.00,VWS V14.01,2013-02-13 18:02:00,
2013-02-13 10:07:00,48.0,26.0,30.33,NE,46,4.0,4.0,42,0.00,,CLR,0.00,VWS V14.01,2013-02-13 18:07:00,
2013-02-13 10:12:00,48.3,25.7,30.33,NE,39,3.0,5.0,41,0.00,,CLR,0.00,VWS V14.01,2013-02-13 18:12:00,
2013-02-13 10:17:00,48.9,26.8,30.33,NE,39,0.0,2.0,42,0.00,,CLR,0.00,VWS V14.01,2013-02-13 18:17:00,
2013-02-13 10:22:00,49.7,25.8,30.33,NE,38,0.0,3.0,39,0.00,,CLR,0.00,VWS V14.01,2013-02-13 18:22:00,
2013-02-13 10:28:00,50.5,25.2,30.33,NE,38,0.0,4.0,37,0.00,,CLR,0.00,VWS V14.01,2013-02-13 18:28:00,
2013-02-13 10:33:00,51.2,24.5,30.33,NE,37,0.0,4.0,35,0.00,,CLR,0.00,VWS V14.01,2013-02-13 18:33:00,
2013-02-13 10:38:00,51.5,24.1,30.33,NE,37,0.0,1.0,34,0.00,,CLR,0.00,VWS V14.01,2013-02-13 18:38:00,
2013-02-13 10:43:00,51.9,24.4,30.33,NE,37,2.0,3.0,34,0.00,,CLR,0.00,VWS V14.01,2013-02-13 18:43:00,
2013-02-13 10:48:00,52.4,24.9,30.33,NE,36,1.0,3.0,34,0.00,,CLR,0.00,VWS V14.01,2013-02-13 18:48:00,
2013-02-13 10:53:00,52.5,24.2,30.33,NNE,33,1.0,5.0,33,0.00,,CLR,0.00,VWS V14.01,2013-02-13 18:53:00,
2013-02-13 10:58:00,52.9,23.9,30.32,NNE,33,1.0,3.0,32,0.00,,CLR,0.00,VWS V14.01,2013-02-13 18:58:00,
2013-02-13 11:03:00,53.3,24.2,30.32,NNE,33,0.0,2.0,32,0.00,,CLR,0.00,VWS V14.01,2013-02-13 19:03:00,
2013-02-13 11:08:00,54.0,23.3,30.32,NNE,33,4.0,4.0,30,0.00,,CLR,0.00,VWS V14.01,2013-02-13 19:08:00,
2013-02-13 11:13:00,54.6,23.0,30.31,NE,42,2.0,5.0,29,0.00,,CLR,0.00,VWS V14.01,2013-02-13 19:13:00,
2013-02-13 11:18:00,55.2,22.7,30.31,NE,40,2.0,5.0,28,0.00,,CLR,0.00,VWS V14.01,2013-02-13 19:18:00,
2013-02-13 11:23:00,55.5,22.1,30.31,NE,42,0.0,5.0,27,0.00,,CLR,0.00,VWS V14.01,2013-02-13 19:23:00,
2013-02-13 11:28:00,55.7,23.1,30.30,NE,41,5.0,5.0,28,0.00,,CLR,0.00,VWS V14.01,2013-02-13 19:28:00,
2013-02-13 11:33:00,56.1,22.6,30.30,NE,40,1.0,4.0,27,0.00,,CLR,0.00,VWS V14.01,2013-02-13 19:33:00,
2013-02-13 11:38:00,56.6,23.0,30.30,NE,40,0.0,5.0,27,0.00,,CLR,0.00,VWS V14.01,2013-02-13 19:38:00,
2013-02-13 11:43:00,56.9,22.4,30.30,NE,40,4.0,6.0,26,0.00,,CLR,0.00,VWS V14.01,2013-02-13 19:43:00,
2013-02-13 11:49:00,57.0,23.4,30.29,NE,40,0.0,3.0,27,0.00,,CLR,0.00,VWS V14.01,2013-02-13 19:49:00,
2013-02-13 11:54:00,57.5,22.9,30.29,NE,36,3.0,6.0,26,0.00,,CLR,0.00,VWS V14.01,2013-02-13 19:54:00,
2013-02-13 11:59:00,57.9,23.2,30.29,NE,36,0.0,4.0,26,0.00,,CLR,0.00,VWS V14.01,2013-02-13 19:59:00,
2013-02-13 12:04:00,58.2,21.6,30.28,NE,38,4.0,6.0,24,0.00,,CLR,0.00,VWS V14.01,2013-02-13 20:04:00,
2013-02-13 12:09:00,58.4,21.8,30.28,NE,38,0.0,4.0,24,0.00,,CLR,0.00,VWS V14.01,2013-02-13 20:09:00,
2013-02-13 12:14:00,58.9,21.2,30.28,NE,38,3.0,7.0,23,0.00,,CLR,0.00,VWS V14.01,2013-02-13 20:14:00,
2013-02-13 12:19:00,59.1,21.4,30.27,NE,50,3.0,5.0,23,0.00,,CLR,0.00,VWS V14.01,2013-02-13 20:19:00,
2013-02-13 12:24:00,59.1,21.4,30.27,NE,51,1.0,3.0,23,0.00,,CLR,0.00,VWS V14.01,2013-02-13 20:24:00,
2013-02-13 12:29:00,59.3,20.5,30.26,NE,51,3.0,4.0,22,0.00,,CLR,0.00,VWS V14.01,2013-02-13 20:29:00,
2013-02-13 12:34:00,59.8,22.0,30.26,NE,52,2.0,5.0,23,0.00,,CLR,0.00,VWS V14.01,2013-02-13 20:34:00,
2013-02-13 12:39:00,60.2,21.2,30.26,NE,51,2.0,6.0,22,0.00,,CLR,0.00,VWS V14.01,2013-02-13 20:39:00,
2013-02-13 12:44:00,60.3,20.2,30.26,ENE,66,2.0,10.0,21,0.00,,CLR,0.00,VWS V14.01,2013-02-13 20:44:00,
2013-02-13 12:49:00,60.4,21.4,30.25,ENE,65,4.0,5.0,22,0.00,,CLR,0.00,VWS V14.01,2013-02-13 20:49:00,
2013-02-13 12:54:00,60.5,20.4,30.25,ENE,74,4.0,8.0,21,0.00,,CLR,0.00,VWS V14.01,2013-02-13 20:54:00,
2013-02-13 13:00:00,60.6,20.5,30.25,ENE,61,5.0,7.0,21,0.00,,CLR,0.00,VWS V14.01,2013-02-13 21:00:00,
2013-02-13 13:05:00,60.8,20.6,30.25,ENE,57,0.0,5.0,21,0.00,,CLR,0.00,VWS V14.01,2013-02-13 21:05:00,
2013-02-13 13:10:00,61.2,19.8,30.25,NE,56,1.0,5.0,20,0.00,,CLR,0.00,VWS V14.01,2013-02-13 21:10:00,
2013-02-13 13:15:00,61.4,20.0,30.25,ENE,66,0.0,8.0,20,0.00,,CLR,0.00,VWS V14.01,2013-02-13 21:15:00,
2013-02-13 13:20:00,61.5,18.9,30.24,ENE,66,5.0,5.0,19,0.00,,CLR,0.00,VWS V14.01,2013-02-13 21:20:00,
2013-02-13 13:25:00,61.8,19.1,30.24,NE,36,6.0,6.0,19,0.00,,CLR,0.00,VWS V14.01,2013-02-13 21:25:00,
2013-02-13 13:30:00,62.2,19.5,30.24,NE,34,3.0,3.0,19,0.00,,CLR,0.00,VWS V14.01,2013-02-13 21:30:00,
2013-02-13 13:35:00,62.5,18.5,30.23,ENE,68,1.0,2.0,18,0.00,,CLR,0.00,VWS V14.01,2013-02-13 21:35:00,
2013-02-13 13:40:00,62.6,18.5,30.23,ENE,68,3.0,4.0,18,0.00,,CLR,0.00,VWS V14.01,2013-02-13 21:40:00,
2013-02-13 13:45:00,62.6,18.5,30.23,ENE,76,3.0,3.0,18,0.00,,CLR,0.00,VWS V14.01,2013-02-13 21:45:00,
2013-02-13 13:50:00,62.5,19.7,30.23,East,90,1.0,1.0,19,0.00,,CLR,0.00,VWS V14.01,2013-02-13 21:50:00,
2013-02-13 13:55:00,62.5,17.1,30.22,East,83,3.0,7.0,17,0.00,,CLR,0.00,VWS V14.01,2013-02-13 21:55:00,
2013-02-13 14:00:00,62.5,17.1,30.22,ESE,111,1.0,5.0,17,0.00,,CLR,0.00,VWS V14.01,2013-02-13 22:00:00,
2013-02-13 14:05:00,62.5,17.1,30.22,ESE,108,4.0,5.0,17,0.00,,CLR,0.00,VWS V14.01,2013-02-13 22:05:00,
2013-02-13 14:11:00,62.5,17.1,30.22,ESE,108,4.0,4.0,17,0.00,,CLR,0.00,VWS V14.01,2013-02-13 22:11:00,
2013-02-13 14:16:00,62.5,18.5,30.21,ESE,112,1.0,8.0,18,0.00,,CLR,0.00,VWS V14.01,2013-02-13 22:16:00,
2013-02-13 14:21:00,62.7,17.3,30.21,ESE,114,0.0,5.0,17,0.00,,CLR,0.00,VWS V14.01,2013-02-13 22:21:00,
2013-02-13 14:26:00,63.0,17.5,30.21,ESE,121,0.0,6.0,17,0.00,,CLR,0.00,VWS V14.01,2013-02-13 22:26:00,
2013-02-13 14:31:00,63.1,17.6,30.21,ESE,113,2.0,6.0,17,0.00,,CLR,0.00,VWS V14.01,2013-02-13 22:31:00,
2013-02-13 14:36:00,63.1,16.2,30.20,ESE,113,0.0,2.0,16,0.00,,CLR,0.00,VWS V14.01,2013-02-13 22:36:00,
2013-02-13 14:41:00,63.1,16.2,30.20,ENE,69,5.0,5.0,16,0.00,,CLR,0.00,VWS V14.01,2013-02-13 22:41:00,
2013-02-13 14:46:00,63.2,16.3,30.20,ENE,60,2.0,5.0,16,0.00,,CLR,0.00,VWS V14.01,2013-02-13 22:46:00,
2013-02-13 14:51:00,63.3,17.8,30.20,ENE,59,4.0,5.0,17,0.00,,CLR,0.00,VWS V14.01,2013-02-13 22:51:00,
2013-02-13 14:56:00,63.2,16.3,30.20,ENE,73,2.0,6.0,16,0.00,,CLR,0.00,VWS V14.01,2013-02-13 22:56:00,
2013-02-13 15:01:00,63.2,16.3,30.20,ENE,78,2.0,4.0,16,0.00,,CLR,0.00,VWS V14.01,2013-02-13 23:01:00,
2013-02-13 15:06:00,63.3,16.4,30.19,ENE,74,4.0,6.0,16,0.00,,CLR,0.00,VWS V14.01,2013-02-13 23:06:00,
2013-02-13 15:11:00,63.5,17.9,30.19,ENE,64,0.0,4.0,17,0.00,,CLR,0.00,VWS V14.01,2013-02-13 23:11:00,
2013-02-13 15:16:00,63.6,18.0,30.19,NE,54,0.0,2.0,17,0.00,,CLR,0.00,VWS V14.01,2013-02-13 23:16:00,
2013-02-13 15:22:00,63.8,16.8,30.19,ENE,59,5.0,7.0,16,0.00,,CLR,0.00,VWS V14.01,2013-02-13 23:22:00,
2013-02-13 15:27:00,63.9,16.9,30.19,ENE,60,2.0,4.0,16,0.00,,CLR,0.00,VWS V14.01,2013-02-13 23:27:00,
2013-02-13 15:32:00,63.9,16.9,30.19,ENE,65,3.0,4.0,16,0.00,,CLR,0.00,VWS V14.01,2013-02-13 23:32:00,
2013-02-13 15:37:00,63.8,16.8,30.18,ENE,73,1.0,6.0,16,0.00,,CLR,0.00,VWS V14.01,2013-02-13 23:37:00,
2013-02-13 15:42:00,63.6,16.6,30.18,ENE,74,4.0,5.0,16,0.00,,CLR,0.00,VWS V14.01,2013-02-13 23:42:00,
2013-02-13 15:47:00,63.7,16.7,30.18,East,97,5.0,5.0,16,0.00,,CLR,0.00,VWS V14.01,2013-02-13 23:47:00,
2013-02-13 15:52:00,63.8,16.8,30.18,East,97,4.0,5.0,16,0.00,,CLR,0.00,VWS V14.01,2013-02-13 23:52:00,
2013-02-13 15:57:00,63.8,16.8,30.18,East,91,7.0,7.0,16,0.00,,CLR,0.00,VWS V14.01,2013-02-13 23:57:00,
2013-02-13 16:02:00,63.8,16.8,30.18,NE,56,3.0,7.0,16,0.00,,CLR,0.00,VWS V14.01,2013-02-14 00:02:00,
2013-02-13 16:07:00,63.7,16.7,30.18,NE,56,0.0,2.0,16,0.00,,CLR,0.00,VWS V14.01,2013-02-14 00:07:00,
2013-02-13 16:12:00,63.6,16.6,30.18,NE,56,1.0,5.0,16,0.00,,CLR,0.00,VWS V14.01,2013-02-14 00:12:00,
2013-02-13 16:17:00,63.5,16.5,30.17,NE,55,1.0,4.0,16,0.00,,CLR,0.00,VWS V14.01,2013-02-14 00:17:00,
2013-02-13 16:22:00,63.4,16.5,30.18,NE,54,4.0,6.0,16,0.00,,CLR,0.00,VWS V14.01,2013-02-14 00:22:00,
2013-02-13 16:28:00,63.3,16.4,30.17,ENE,58,3.0,5.0,16,0.00,,CLR,0.00,VWS V14.01,2013-02-14 00:28:00,
2013-02-13 16:33:00,63.1,16.2,30.17,ENE,58,0.0,3.0,16,0.00,,CLR,0.00,VWS V14.01,2013-02-14 00:33:00,
2013-02-13 16:38:00,63.1,16.2,30.17,ENE,58,0.0,2.0,16,0.00,,CLR,0.00,VWS V14.01,2013-02-14 00:38:00,
2013-02-13 16:43:00,63.1,16.2,30.17,ENE,58,0.0,5.0,16,0.00,,CLR,0.00,VWS V14.01,2013-02-14 00:43:00,
2013-02-13 16:48:00,63.0,16.1,30.17,ENE,58,1.0,3.0,16,0.00,,CLR,0.00,VWS V14.01,2013-02-14 00:48:00,
2013-02-13 16:53:00,62.8,16.0,30.17,NE,56,2.0,5.0,16,0.00,,CLR,0.00,VWS V14.01,2013-02-14 00:53:00,
2013-02-13 16:58:00,62.6,15.8,30.17,NE,55,3.0,5.0,16,0.00,,CLR,0.00,VWS V14.01,2013-02-14 00:58:00,
2013-02-13 17:03:00,62.5,15.7,30.17,NE,55,1.0,4.0,16,0.00,,CLR,0.00,VWS V14.01,2013-02-14 01:03:00,
2013-02-13 17:08:00,62.3,17.0,30.17,NE,55,0.0,1.0,17,0.00,,CLR,0.00,VWS V14.01,2013-02-14 01:08:00,
2013-02-13 17:13:00,62.2,16.9,30.17,NE,55,3.0,3.0,17,0.00,,CLR,0.00,VWS V14.01,2013-02-14 01:13:00,
2013-02-13 17:18:00,61.8,15.2,30.17,NE,55,2.0,3.0,16,0.00,,CLR,0.00,VWS V14.01,2013-02-14 01:18:00,
2013-02-13 17:23:00,61.4,16.2,30.17,NE,55,0.0,1.0,17,0.00,,CLR,0.00,VWS V14.01,2013-02-14 01:23:00,
2013-02-13 17:29:00,60.9,15.8,30.18,NE,55,0.0,0.0,17,0.00,,CLR,0.00,VWS V14.01,2013-02-14 01:29:00,
2013-02-13 17:34:00,60.4,15.4,30.18,NE,55,0.0,0.0,17,0.00,,CLR,0.00,VWS V14.01,2013-02-14 01:34:00,
2013-02-13 17:39:00,59.7,16.1,30.18,NE,55,0.0,0.0,18,0.00,,CLR,0.00,VWS V14.01,2013-02-14 01:39:00,
2013-02-13 17:44:00,59.0,18.0,30.18,NE,55,0.0,1.0,20,0.00,,CLR,0.00,VWS V14.01,2013-02-14 01:44:00,
2013-02-13 17:49:00,58.4,17.5,30.18,NE,55,0.0,3.0,20,0.00,,CLR,0.00,VWS V14.01,2013-02-14 01:49:00,
2013-02-13 17:54:00,57.6,18.0,30.18,NE,55,0.0,1.0,21,0.00,,CLR,0.00,VWS V14.01,2013-02-14 01:54:00,
2013-02-13 17:59:00,56.9,18.5,30.18,NE,55,0.0,1.0,22,0.00,,CLR,0.00,VWS V14.01,2013-02-14 01:59:00,
2013-02-13 18:04:00,56.2,17.9,30.18,NE,55,0.0,0.0,22,0.00,,CLR,0.00,VWS V14.01,2013-02-14 02:04:00,
2013-02-13 18:09:00,55.6,18.4,30.18,NE,55,0.0,2.0,23,0.00,,CLR,0.00,VWS V14.01,2013-02-14 02:09:00,
2013-02-13 18:14:00,54.9,17.8,30.18,NE,55,0.0,2.0,23,0.00,,CLR,0.00,VWS V14.01,2013-02-14 02:14:00,
2013-02-13 18:19:00,54.3,18.3,30.18,NE,55,0.0,1.0,24,0.00,,CLR,0.00,VWS V14.01,2013-02-14 02:19:00,
2013-02-13 18:24:00,53.7,17.8,30.18,NE,55,1.0,1.0,24,0.00,,CLR,0.00,VWS V14.01,2013-02-14 02:24:00,
2013-02-13 18:29:00,53.2,18.3,30.18,NE,55,0.0,2.0,25,0.00,,CLR,0.00,VWS V14.01,2013-02-14 02:29:00,
2013-02-13 18:34:00,52.7,17.9,30.18,NE,55,0.0,2.0,25,0.00,,CLR,0.00,VWS V14.01,2013-02-14 02:34:00,
2013-02-13 18:39:00,52.3,17.5,30.18,NE,55,0.0,0.0,25,0.00,,CLR,0.00,VWS V14.01,2013-02-14 02:39:00,
2013-02-13 18:44:00,51.9,18.1,30.18,NE,55,0.0,0.0,26,0.00,,CLR,0.00,VWS V14.01,2013-02-14 02:44:00,
2013-02-13 18:50:00,51.6,17.9,30.18,NE,55,0.0,1.0,26,0.00,,CLR,0.00,VWS V14.01,2013-02-14 02:50:00,
2013-02-13 18:55:00,51.3,18.5,30.18,NE,55,0.0,0.0,27,0.00,,CLR,0.00,VWS V14.01,2013-02-14 02:55:00,
2013-02-13 19:00:00,50.9,18.1,30.18,NE,55,0.0,0.0,27,0.00,,CLR,0.00,VWS V14.01,2013-02-14 03:00:00,
2013-02-13 19:05:00,50.6,18.7,30.18,NE,55,0.0,0.0,28,0.00,,CLR,0.00,VWS V14.01,2013-02-14 03:05:00,
2013-02-13 19:10:00,50.2,19.2,30.18,NE,55,0.0,0.0,29,0.00,,CLR,0.00,VWS V14.01,2013-02-14 03:10:00,
2013-02-13 19:15:00,49.7,19.5,30.18,NE,55,0.0,0.0,30,0.00,,CLR,0.00,VWS V14.01,2013-02-14 03:15:00,
2013-02-13 19:20:00,49.3,19.2,30.18,NE,55,0.0,0.0,30,0.00,,CLR,0.00,VWS V14.01,2013-02-14 03:20:00,
2013-02-13 19:25:00,49.0,19.7,30.18,NE,55,0.0,0.0,31,0.00,,CLR,0.00,VWS V14.01,2013-02-14 03:25:00,
2013-02-13 19:30:00,48.6,19.4,30.18,NE,55,0.0,0.0,31,0.00,,CLR,0.00,VWS V14.01,2013-02-14 03:30:00,
2013-02-13 19:35:00,48.2,20.5,30.18,NE,55,1.0,2.0,33,0.00,,CLR,0.00,VWS V14.01,2013-02-14 03:35:00,
2013-02-13 19:40:00,47.8,19.4,30.18,NE,55,0.0,0.0,32,0.00,,CLR,0.00,VWS V14.01,2013-02-14 03:40:00,
2013-02-13 19:45:00,47.4,19.8,30.18,NE,55,1.0,1.0,33,0.00,,CLR,0.00,VWS V14.01,2013-02-14 03:45:00,
2013-02-13 19:50:00,47.0,20.1,30.19,NE,55,1.0,4.0,34,0.00,,CLR,0.00,VWS V14.01,2013-02-14 03:50:00,
2013-02-13 19:55:00,46.6,19.8,30.19,NE,51,2.0,5.0,34,0.00,,CLR,0.00,VWS V14.01,2013-02-14 03:55:00,
2013-02-13 20:00:00,46.3,20.2,30.19,NE,51,0.0,0.0,35,0.00,,CLR,0.00,VWS V14.01,2013-02-14 04:00:00,
2013-02-13 20:06:00,46.1,20.6,30.19,NE,51,0.0,0.0,36,0.00,,CLR,0.00,VWS V14.01,2013-02-14 04:06:00,
2013-02-13 20:11:00,45.8,20.4,30.20,NE,51,0.0,0.0,36,0.00,,CLR,0.00,VWS V14.01,2013-02-14 04:11:00,
2013-02-13 20:16:00,45.5,20.1,30.20,NE,51,0.0,0.0,36,0.00,,CLR,0.00,VWS V14.01,2013-02-14 04:16:00,
2013-02-13 20:21:00,45.3,19.9,30.19,NE,51,0.0,0.0,36,0.00,,CLR,0.00,VWS V14.01,2013-02-14 04:21:00,
2013-02-13 20:26:00,45.2,19.9,30.20,NE,51,0.0,0.0,36,0.00,,CLR,0.00,VWS V14.01,2013-02-14 04:26:00,
2013-02-13 20:31:00,45.0,20.3,30.20,NE,51,0.0,0.0,37,0.00,,CLR,0.00,VWS V14.01,2013-02-14 04:31:00,
2013-02-13 20:36:00,44.8,20.1,30.21,NE,51,0.0,0.0,37,0.00,,CLR,0.00,VWS V14.01,2013-02-14 04:36:00,
2013-02-13 20:41:00,44.6,20.0,30.21,NE,51,0.0,0.0,37,0.00,,CLR,0.00,VWS V14.01,2013-02-14 04:41:00,
2013-02-13 20:46:00,44.3,20.3,30.21,NE,51,0.0,0.0,38,0.00,,CLR,0.00,VWS V14.01,2013-02-14 04:46:00,
2013-02-13 20:51:00,44.1,20.1,30.21,NE,51,0.0,0.0,38,0.00,,CLR,0.00,VWS V14.01,2013-02-14 04:51:00,
2013-02-13 20:56:00,43.8,19.9,30.21,NE,51,0.0,0.0,38,0.00,,CLR,0.00,VWS V14.01,2013-02-14 04:56:00,
2013-02-13 21:00:00,43.6,20.3,30.21,NE,51,0.0,0.0,39,0.00,,CLR,0.00,VWS V14.01,2013-02-14 05:00:00,
2013-02-13 21:02:00,43.4,20.1,30.21,NE,51,0.0,0.0,39,0.00,,CLR,0.00,VWS V14.01,2013-02-14 05:02:00,
2013-02-13 21:03:00,43.4,20.1,30.21,NE,51,0.0,0.0,39,0.00,,CLR,0.00,VWS V14.01,2013-02-14 05:03:00,
2013-02-13 21:08:00,43.2,19.9,30.21,NE,51,0.0,0.0,39,0.00,,CLR,0.00,VWS V14.01,2013-02-14 05:08:00,
2013-02-13 21:13:00,43.0,19.8,30.21,NE,51,0.0,0.0,39,0.00,,CLR,0.00,VWS V14.01,2013-02-14 05:13:00,
2013-02-13 21:18:00,42.8,19.6,30.21,NE,51,0.0,0.0,39,0.00,,CLR,0.00,VWS V14.01,2013-02-14 05:18:00,
2013-02-13 21:24:00,42.5,20.5,30.21,NE,51,0.0,0.0,41,0.00,,CLR,0.00,VWS V14.01,2013-02-14 05:24:00,
2013-02-13 21:29:00,42.3,20.9,30.21,NE,51,0.0,2.0,42,0.00,,CLR,0.00,VWS V14.01,2013-02-14 05:29:00,
2013-02-13 21:34:00,42.1,20.7,30.21,NE,51,0.0,0.0,42,0.00,,CLR,0.00,VWS V14.01,2013-02-14 05:34:00,
2013-02-13 21:39:00,42.0,20.0,30.21,NE,51,0.0,3.0,41,0.00,,CLR,0.00,VWS V14.01,2013-02-14 05:39:00,
2013-02-13 21:44:00,41.8,20.4,30.21,NE,51,0.0,0.0,42,0.00,,CLR,0.00,VWS V14.01,2013-02-14 05:44:00,
2013-02-13 21:49:00,41.7,20.3,30.21,NE,51,0.0,0.0,42,0.00,,CLR,0.00,VWS V14.01,2013-02-14 05:49:00,
2013-02-13 21:54:00,41.5,20.1,30.21,NE,51,0.0,0.0,42,0.00,,CLR,0.00,VWS V14.01,2013-02-14 05:54:00,
2013-02-13 21:59:00,41.3,20.5,30.21,NE,51,0.0,0.0,43,0.00,,CLR,0.00,VWS V14.01,2013-02-14 05:59:00,
2013-02-13 22:04:00,41.2,20.4,30.21,NE,51,0.0,1.0,43,0.00,,CLR,0.00,VWS V14.01,2013-02-14 06:04:00,
2013-02-13 22:09:00,41.2,20.4,30.21,NE,51,0.0,2.0,43,0.00,,CLR,0.00,VWS V14.01,2013-02-14 06:09:00,
2013-02-13 22:14:00,41.2,20.4,30.21,NE,51,0.0,0.0,43,0.00,,CLR,0.00,VWS V14.01,2013-02-14 06:14:00,
2013-02-13 22:19:00,41.1,20.9,30.21,NE,51,0.0,0.0,44,0.00,,CLR,0.00,VWS V14.01,2013-02-14 06:19:00,
2013-02-13 22:24:00,40.9,20.7,30.21,NE,51,0.0,0.0,44,0.00,,CLR,0.00,VWS V14.01,2013-02-14 06:24:00,
2013-02-13 22:29:00,40.9,20.7,30.21,NE,51,0.0,2.0,44,0.00,,CLR,0.00,VWS V14.01,2013-02-14 06:29:00,
2013-02-13 22:34:00,40.8,20.6,30.21,NE,51,0.0,0.0,44,0.00,,CLR,0.00,VWS V14.01,2013-02-14 06:34:00,
2013-02-13 22:39:00,40.9,20.7,30.22,NE,51,0.0,0.0,44,0.00,,CLR,0.00,VWS V14.01,2013-02-14 06:39:00,
2013-02-13 22:45:00,40.9,20.7,30.22,NE,51,0.0,2.0,44,0.00,,CLR,0.00,VWS V14.01,2013-02-14 06:45:00,
2013-02-13 22:50:00,41.0,20.8,30.21,NE,51,0.0,0.0,44,0.00,,CLR,0.00,VWS V14.01,2013-02-14 06:50:00,
2013-02-13 22:55:00,40.9,20.7,30.22,NE,51,0.0,0.0,44,0.00,,CLR,0.00,VWS V14.01,2013-02-14 06:55:00,
2013-02-13 23:00:00,40.7,21.5,30.22,NE,51,0.0,0.0,46,0.00,,CLR,0.00,VWS V14.01,2013-02-14 07:00:00,
2013-02-13 23:05:00,40.6,22.0,30.22,NE,51,0.0,0.0,47,0.00,,CLR,0.00,VWS V14.01,2013-02-14 07:05:00,
2013-02-13 23:10:00,40.5,22.4,30.22,NE,51,0.0,0.0,48,0.00,,CLR,0.00,VWS V14.01,2013-02-14 07:10:00,
2013-02-13 23:15:00,40.4,22.3,30.22,NE,51,0.0,0.0,48,0.00,,CLR,0.00,VWS V14.01,2013-02-14 07:15:00,
2013-02-13 23:20:00,40.2,22.6,30.22,NE,51,0.0,0.0,49,0.00,,CLR,0.00,VWS V14.01,2013-02-14 07:20:00,
2013-02-13 23:25:00,39.9,22.8,30.22,NE,51,0.0,0.0,50,0.00,,CLR,0.00,VWS V14.01,2013-02-14 07:25:00,
2013-02-13 23:30:00,39.7,22.6,30.22,NE,51,0.0,0.0,50,0.00,,CLR,0.00,VWS V14.01,2013-02-14 07:30:00,
2013-02-13 23:35:00,39.4,23.2,30.22,NE,51,0.0,0.0,52,0.00,,CLR,0.00,VWS V14.01,2013-02-14 07:35:00,
2013-02-13 23:40:00,39.3,23.6,30.22,NE,51,0.0,0.0,53,0.00,,CLR,0.00,VWS V14.01,2013-02-14 07:40:00,
2013-02-13 23:45:00,39.3,23.6,30.22,NE,51,0.0,0.0,53,0.00,,CLR,0.00,VWS V14.01,2013-02-14 07:45:00,
2013-02-13 23:50:00,39.2,23.5,30.22,NE,51,0.0,0.0,53,0.00,,CLR,0.00,VWS V14.01,2013-02-14 07:50:00,
2013-02-13 23:55:00,39.0,23.3,30.22,NE,51,0.0,0.0,53,0.00,,CLR,0.00,VWS V14.01,2013-02-14 07:55:00,